www.pogodaiklimat.ru

Погода и климат >> Архив погоды >> Финляндия >> Эхтяри


ПОГОДА в Эхтяри

  • Прогноз погоды в Эхтяри
  • Монитор погоды в Эхтяри

АРХИВ ПОГОДЫ в Эхтяри

Время (UTC), дата Ветер
(напр.,м/с)
 
Видим.   Явления Облачность Т
(С)
Тd
(С)
f
(%)
Тe
(С)
Тes
(С)
Комфортность P
(гПа)
Po
(гПа)
Тmin
(С)
Tmax
(С)
R
(мм)
R24
(мм)
S
(см)
21 15.08 20 км 9/0 2000 м
[]
+12.8 +9.4 80 1008.7 989.3
00 16.08 20 км 9/0 2000 м
[]
+11.8 +10.1 89 1009.8 990.3
03 16.08 20 км 9/0 1500 м
[]
+11.3 +10.3 94 1010.4 990.8
06 16.08 20 км 9/9 100 м
[]
+12.3 +10.4 88 1011.4 991.9 +11.0 +13.3
09 16.08 20 км ясно +18.3 +10.0 58 1011.5 992.4
12 16.08 20 км ясно +20.3 +8.8 48 1011.6 992.6
15 16.08 20 км 6/0 1500 м
[]
+20.4 +9.8 51 1011.5 992.6
18 16.08 20 км 9/1 1500 м
[]
+17.2 +11.4 69 1012.5 993.4 +12.2 +21.1
21 16.08 20 км 10/0 2000 м
[]
+15.9 +12.2 79 1013.1 993.8
00 17.08 20 км слаб. ливневой дождь 10/0 2000 м
[]
+14.8 +11.3 80 1012.9 993.5
03 17.08 20 км слаб. ливневой дождь 9/0
[]
+14.1 +11.7 85 1012.6 993.2 0.1
06 17.08 20 км 9/9 2000 м
[]
+15.5 +11.9 79 1012.2 992.9 +13.8 +17.2 0.3
09 17.08 20 км ясно +19.4 +12.9 66 1011.5 992.5
12 17.08 20 км 8/4 1000 м
[]
+20.4 +12.4 60 1011.1 992.2
15 17.08 20 км в посл. час дождь 10/1 1500 м
[]
+18.3 +14.5 79 1011.5 992.4 0.2
18 17.08 20 км 9/0
[]
+15.6 +14.6 94 1011.5 992.2 +15.5 +21.3 0.7
21 17.08 20 км 9/3
[]
+15.5 +11.9 79 1011.8 992.5
00 18.08 20 км 6/0 2000 м
[]
+15.1 +12.5 84 1012.1 992.8
03 18.08 20 км 1/0
[]
+13.9 +12.5 91 1011.3 991.9
06 18.08 20 км в посл. час дождь 9/9 2000 м
[]
+16.4 +13.7 84 1010.7 991.5 +13.5 +16.9
09 18.08 20 км 9/9 2000 м
[]
+18.3 +13.2 72 1010.5 991.4
12 18.08 20 км слаб. ливневой дождь 10/0 2000 м
[]
+18.2 +14.7 80 1010.4 991.3 0.1
15 18.08 20 км слаб. дождь 10/0 1000 м
[]
+18.5 +13.6 73 1010.0 990.9
18 18.08 20 км 10/4 1500 м
[]
+15.9 +13.0 83 1009.5 990.3 +15.7 +19.3 0.3
21 18.08 20 км 10/0
[]
+15.1 +10.9 76 1008.3 989.0
00 19.08 20 км в посл. час дождь 10/9 1500 м
[]
+15.6 +10.2 70 1007.0 987.8 0.2
03 19.08 20 км слаб. дождь 10/0 1500 м
[]
+13.7 +12.0 89 1005.1 985.9 0.5
06 19.08 7000 м дождь 10/10 100 м
[]
+14.5 +13.8 96 1002.3 983.1 +13.3 +16.5 9
09 19.08 9000 м слаб. ливневой дождь 10/0 100 м
[]
+15.6 +15.0 96 1002.1 983.0 1
12 19.08 20 км 9/0 300 м
[]
+17.9 +14.6 81 1004.1 985.1
15 19.08 20 км 9/0 1500 м
[]
+17.9 +11.2 65 1006.4 987.4
18 19.08 20 км ясно +15.2 +11.8 80 1008.2 989.0 +14.4 +19.6 3
21 19.08 20 км ясно +12.6 +11.1 91 1010.0 990.6
00 20.08 20 км ясно +12.1 +11.0 93 1010.6 991.1
03 20.08 20 км ясно +11.9 +11.4 97 1011.5 992.0
06 20.08 20 км 10/10 200 м
[]
+14.4 +12.4 88 1012.3 993.0 +11.8 +15.2
09 20.08 20 км 9/0 600 м
[]
+17.8 +10.6 63 1012.9 993.8
12 20.08 20 км 9/0 1000 м
[]
+19.4 +10.0 55 1013.7 994.7
15 20.08 20 км 8/0 1000 м
[]
+19.9 +9.7 52 1014.5 995.5
18 20.08 20 км ясно +16.3 +11.0 71 1015.7 996.4 +14.4 +20.3
21 20.08 20 км 5/5 600 м
[]
+13.9 +11.8 87 1017.0 997.6
00 21.08 20 км 4/0 200 м
[]
+13.0 +12.1 94 1017.4 997.9
03 21.08 20 км 10/0 100 м
[]
+12.9 +12.0 94 1018.3 998.8
06 21.08 20 км 9/9 300 м
[]
+14.5 +12.0 85 1019.0 999.5 +12.5 +16.3
09 21.08 20 км 1/0 2000 м
[]
+17.6 +11.2 66 1019.0 999.8
12 21.08 20 км 6/1 1000 м
[]
+20.3 +10.6 54 1018.1 999.0
15 21.08 20 км 3/0 1500 м
[]
+19.9 +8.1 46 1017.2 998.1
18 21.08 20 км ясно +15.9 +9.7 67 1018.2 998.8 +14.5 +20.6
21 21.08 20 км 4/0 600 м
[]
+11.1 +10.2 94 1018.9 999.2
00 22.08 20 км ясно +8.8 +8.5 98 1018.8 998.9
03 22.08 500 м туман ?/? +10.2 +10.0 99 1018.7 998.9
06 22.08 2800 м дымка 10/10 50 м
[]
+11.4 +11.3 99 1019.2 999.5 +8.6 +15.9 1
09 22.08 20 км 8/0
[]
+15.2 +9.3 68 1019.9 1000.4
12 22.08 20 км ясно +18.1 +6.5 47 1020.1 1000.9
15 22.08 20 км ясно +18.6 +5.2 41 1020.3 1001.1
18 22.08 20 км ясно +12.9 +7.3 69 1021.2 1001.6 +11.4 +19.0

 

Местоположение метеостанции Эхтяри (Финляндия): широта 62.53 долгота 24.22 высота над уровнем моря 159 м.

В архиве по умолчанию представлена погода в Эхтяри за последнюю неделю. Архивные данные за месяц целиком и за предыдущие месяцы, начиная с января 2011 года, Вы можете получить, выбрав интересующий диапазон дат из раскрывающегося списка и нажав кнопку "Ввод!".


*Определитесь, кто Вы:
робот инопланетянин человек

Внимание! Время в таблицах - всемирное. Для получения местного времени необходимо прибавить поправку, которая равна 1 ч.

Смотрите также архив погоды в соседних городах и на ближайших метеорологических станциях:

Погода в Мультия Кархила (Финляндия) (30 км)
Погода в Виррат Айяннева (Финляндия) (41 км)
Погода в Алаярви Моксы (Финляндия) (62 км)
Погода в Халли (Финляндия) (75 км)
Погода в Юупайоки Хююеяля (Финляндия) (76 км)
Погода в Ювяскюля (Финляндия) (76 км)
Погода в Аэропорту Халли (Финляндия) (80 км)
Погода в Карвиа Алккиа (Финляндия) (87 км)
Погода в Каухаве (Финляндия) (90 км)
Погода в Йлистаро Пелма (Финляндия) (99 км)

Пояснения к столбцам:

Ветер - указаны скорость ветра в м/с - средняя за 10 мин, порывы в срок и между сроками (в фигурных скобках) и направление, откуда дует ветер: С - северный, СВ - северо-восточный, В - восточный, ЮВ - юго-восточный, Ю - южный, ЮЗ - юго-западный, З - западный, СЗ - северо-западный.
Видимость - горизонтальная дальность видимости в метрах или километрах. При видимости от 1 до 10 км при отсутствии осадков обычно наблюдается дымка, при ухудшении видимости до 1 км и менее - туман. В сухую погоду видимость может ухудшаться дымом, пылью или мглою.
Явления - указаны атмосферные явления, наблюдавшиеся в срок или в последний час перед сроком; фигурными скобками обозначены явления, наблюдавшиеся между сроками (за 1-3 часа до срока); квадратными скобками обозначены град или гололедные отложения с указанием их диаметра в мм.
Облачность - указаны через наклонную черту общая и нижняя облачность в баллах и высота нижней границы облаков в метрах; квадратными скобками обозначены формы облаков: Ci - перистые, Cs - перисто-слоистые, Cc - перисто-кучевые, Ac - высококучевые, As - высокослоистые, Sc - слоисто-кучевые, Ns - слоисто-дождевые, Cu - кучевые, Cb - кучево-дождевые. Подробнее классификацию облаков см. в Атласе облаков (PDF).
T - Температура воздуха - температура, измеренная на высоте 2 м над землей.
Td - Температура точки росы - температура, при понижении до которой содержащийся в воздухе водяной пар достигнет насыщения.
f - Относительная влажность воздуха - влажноcть воздуха, измеренная на высоте 2 м над землей.
Te - Эффективная температура - температура, которую ощущает одетый по сезону человек в тени. Характеристика душности погоды. При расчете учитывается влияние влажности воздуха и скорости ветра на теплоощущения человека.
Tes - Эффективная температура на солнце - температура, которую ощущает человек, с поправкой на солнечный нагрев. Характеристика знойности погоды. Зависит от высоты солнца над горизонтом, облачности и скорости ветра. Ночью, в пасмурную погоду, а также при ветре 12 м/с и более поправка равна нулю.
P - Атмосферное давление - приведенное к уровню моря атмосферное давление.
Po - Атмосферное давление - измеренное на уровне метеостанции атмосферное давление.
Tmin - Минимальная температура - минимум температуры воздуха на высоте 2 м над землей.
Tmax - Максимальная температура - максимум температуры воздуха на высоте 2 м над землей.
R - Количество осадков - Количество выпавших осадков за период времени, мм. При наведении курсора мыши на число - период времени, за который выпало указанное количество осадков.
R24 - Количество осадков - Количество выпавших осадков за 24 часа, мм.
S - Снежный покров - Высота снежного покрова, см. При наведении курсора мыши на число - состояние снежного покрова и степень покрытия местности в баллах.